Regional Weather Roundup
Issued by NWS

Home | Current Version | Previous Version | Graphics & Text | Print | Product List | Glossary On
Versions: 1 2 3 4 5 6 7 8 9 10 11 12 13 14 15 16 17 18 19 20 21 22 23 24 25 26 27
000
ASUS45 KBOU 301707
RWRCO

WEATHER ROUNDUP FOR COLORADO
NATIONAL WEATHER SERVICE DENVER/BOULDER CO
1100 AM MDT SAT APR 30 2016

NOTE: "FAIR" INDICATES FEW OR NO CLOUDS BELOW 12000 FEET WITH NO
SIGNIFICANT WEATHER AND/OR OBSTRUCTIONS TO VISIBILITY.

COZ001>005-013-030-031-301800-
...NORTHWEST COLORADO...

CITY           SKY/WX    TMP DP  RH WIND       PRES   REMARKS
CRAIG          PTSUNNY   44  30  57 NE5       29.93R
HAYDEN         PTSUNNY   37  28  70 SE9       29.92S
MEEKER         LGT RAIN  38  32  79 SW7       29.93R
MOUNT WERNER   NOT AVBL
STEAMBOAT SPGS CLOUDY    34  29  80 CALM      29.92S
WALDEN         CLOUDY    32  21  64 NE10      30.06F WCI  24
$$

COZ006>008-011-301800-
...WEST CENTRAL VALLEYS...

CITY           SKY/WX    TMP DP  RH WIND       PRES   REMARKS
GRAND JUNCTION CLOUDY    49  32  52 N5        29.91R
MONTROSE       CLOUDY    48  33  56 SE5       29.91F
EAGLE          FLURRIES  37  36  93 NW6       29.92R
RIFLE          CLOUDY    46  31  55 NW6       29.91R
DELTA          NOT AVBL
NUCLA          NOT AVBL
$$

COZ017>023-064>068-301800-
...SOUTHWEST COLORADO...

CITY           SKY/WX    TMP DP  RH WIND       PRES   REMARKS
DURANGO        FAIR      47  30  51 CALM      29.89F
CORTEZ         CLOUDY    49  35  58 CALM      29.89F
PAGOSA SPRINGS PTSUNNY   39  29  68 S3        29.92S
TELLURIDE      CLOUDY    36  28  74 SW3       29.95S
WOLF CREEK PAS FOG       27  27 100 SW10      29.97S VSB 3/4 WCI  17
$$

COZ009-010-012-014-032>034-037-058>063-301800-
...CENTRAL COLORADO...

CITY           SKY/WX    TMP DP  RH WIND       PRES   REMARKS
ASPEN          CLOUDY    37  29  72 NW7       29.89S
BUENA VISTA    CLOUDY    32  26  77 CALM      29.87R
COPPER MTN     NOT AVBL
BERTHOUD PASS  CLOUDY    16   5  62 N8        29.90R WCI   5
COTTONWOOD PAS CLOUDY    34  27  75 E3        29.88R
GUNNISON       CLOUDY    37  30  75 S3        29.91R
KREMMLING      CLOUDY    36  27  69 NW13      29.94R
LEADVILLE      CLOUDY    31  21  66 NW12      29.87R WCI  22
MONARCH PASS   CLOUDY    21  19  93 MISG      30.00S
SALIDA         CLOUDY    39  32  77 CALM      29.94S
SUNLIGHT       CLOUDY   N/A N/A N/A CALM      29.96F
WILKERSON PASS LGT SNOW  27  23  86 NW3       29.92R
$$

COZ069>075-301800-
...SAN LUIS VALLEY/SANGRE DE CRISTO MOUNTAINS...

CITY           SKY/WX    TMP DP  RH WIND       PRES   REMARKS
ALAMOSA        FAIR      41  32  70 VRB5      29.87S
LA VETA PASS   LGT RAIN  34  30  86 MISG      29.89S
SAGUACHE       PTSUNNY   37  34  87 S8        29.88S
$$

COZ035-036-038>040-301800-
...NORTHERN COLORADO FRONT RANGE...

CITY           SKY/WX    TMP DP  RH WIND       PRES   REMARKS
DENVER INTL AP LGT SNOW  33  29  85 N18       29.96R FOG     WCI  22
DMNS CITY PARK   N/A     34  32  92 N17G24    29.98R WCI  24
AURORA         LGT SNOW  32  32  99 N18       29.97R FOG     WCI  20
FRONT RANGE AP LGT SNOW  32  30  93 N18       29.96R WCI  20
ERIE MUNI ARPT LGT SNOW  35  33  90 N18G31    29.99R WCI  25
BOULDER MUN AP CLOUDY    37  34  87 NE21G26   29.98R
CENTENNIAL     LGT SNOW  32  30  92 N20G26    29.96R VSB 3/4 WCI  20
BROOMFIELD     NOT AVBL
FORT COLLINS   CLOUDY    36  32  87 N15G23    30.00R
LONGMONT       LGT SNOW  39  34  81 N14G24    30.01R
$$

COZ041-046-047-076>085-087-088-301800-
...PIKES PEAK/PALMER DIVIDE AND SOUTHERN FOOTHILLS...

CITY           SKY/WX    TMP DP  RH WIND       PRES   REMARKS
COLO. SPRINGS  PTSUNNY   35  26  69 N24G33    29.91R WCI  23
A. F. ACADEMY  MIX PCPN  32  27  80 N20G28    29.92R WCI  20
SCHRIEVER AFB  NOT AVBL
ELLICOTT       NOT AVBL
FALCON         CLOUDY    34  26  71 N16G22    29.92R HAZE    WCI  24
FORT CARSON    LGT RAIN  36  28  75 N23G29    29.90R
LIMON          LGT SNOW  32  29  88 NW29G36   29.89R FOG     WCI  18
MONUMENT HILL  FLURRIES  28  27  93 N18       29.94R WCI  16
TRINIDAD       CLOUDY    40  28  62 CALM      29.92R
$$

COZ042>045-048>051-090-091-301800-
...NORTHEAST COLORADO...

CITY           SKY/WX    TMP DP  RH WIND       PRES   REMARKS
GREELEY ARPT   CLOUDY    36  32  87 N13       29.99R
AKRON          SNOW      32  30  92 N24       29.88R VSB 1/2 WCI  19
BURLINGTON     CLOUDY    36  30  79 NW22G29   29.85R
WRAY           NOT AVBL
STERLING       FLURRIES  34  34 100 N21       29.90R WCI  22
HOLYOKE        NOT AVBL
FORT MORGAN    LGT SNOW  33  32  95 NW14      29.94R WCI  24
$$

COZ086-089-092>099-301800-
...SOUTHEAST COLORADO...

CITY           SKY/WX    TMP DP  RH WIND       PRES   REMARKS
PUEBLO         CLOUDY    47  31  53 N16       29.92R
LA JUNTA       CLOUDY    45  32  60 N21G31    29.93R
LAMAR          CLOUDY    47  34  60 N18       29.87S
SPRINGFIELD      N/A     46  34  62 NW20G31   29.88R
$$




USA.gov is the U.S. government's official web portal to all federal, state and local government web resources and services.